^^
Station Historical Data
Daily Summary for May 11, 2019 Units:  English    Metric   Both
« Previous Day
Next Day »
Daily Weekly Monthly Yearly Custom
  High: Low: Average:
Temperature: 53 °F 44.3 °F 48.4 °F
Dew Point: 50 °F 35.4 °F 43.1 °F
Humidity: 95% 54% 83%
Wind Speed: 22mph 1mph 9.5mph
Wind Gust: 24mph - -
Wind- - West
Pressure: 29.69 in 29.56 in -
Precipitation: 0.15 in    
Historical Graphs
 
 
Tabular Data for May 11, 2019
Time Temperature Dew Point Pressure Wind Wind Speed Wind Gust Humidity Rainfall Rate (Hourly) solar Conditions
00:04 50.8 °F 35.7 °F 29.67 in SSE 13 mph 18 mph 56% 0 in 0.00 W/m2
00:09 50.4 °F 35.7 °F 29.67 in South 12 mph 16 mph 57% 0 in 0.00 W/m2
00:14 50.6 °F 35.5 °F 29.67 in South 14 mph 18 mph 56% 0 in 0.00 W/m2
00:19 51 °F 35.8 °F 29.66 in SSE 14 mph 22 mph 56% 0 in 0.00 W/m2
00:24 51.5 °F 35.9 °F 29.66 in SSE 13 mph 22 mph 55% 0 in 0.00 W/m2
00:29 51.8 °F 35.7 °F 29.66 in SSE 13 mph 22 mph 54% 0 in 0.00 W/m2
00:34 51.8 °F 35.7 °F 29.66 in SE 8 mph 19 mph 54% 0 in 0.00 W/m2
00:39 50.7 °F 35.6 °F 29.66 in SE 11 mph 19 mph 56% 0 in 0.00 W/m2
00:44 50.1 °F 35.4 °F 29.65 in SE 10 mph 19 mph 57% 0 in 0.00 W/m2
00:49 49.9 °F 35.7 °F 29.65 in SE 14 mph 19 mph 58% 0 in 0.00 W/m2
00:54 49.8 °F 35.6 °F 29.65 in SSE 13 mph 18 mph 58% 0 in 0.00 W/m2
00:59 50.1 °F 35.9 °F 29.65 in SE 11 mph 18 mph 58% 0 in 0.00 W/m2
01:04 49.8 °F 35.6 °F 29.64 in SSE 13 mph 20 mph 58% 0 in 0.00 W/m2
01:09 49.5 °F 35.8 °F 29.64 in SSE 11 mph 20 mph 59% 0 in 0.00 W/m2
01:14 49.2 °F 35.9 °F 29.64 in SSE 11 mph 18 mph 60% 0 in 0.00 W/m2
01:19 48.8 °F 35.5 °F 29.64 in SE 12 mph 16 mph 60% 0 in 0.00 W/m2
01:24 48.4 °F 35.6 °F 29.64 in SSE 9 mph 15 mph 61% 0 in 0.00 W/m2
01:29 48.1 °F 35.7 °F 29.64 in SSE 11 mph 15 mph 62% 0 in 0.00 W/m2
01:34 47.9 °F 35.9 °F 29.64 in SSE 11 mph 15 mph 63% 0 in 0.00 W/m2
01:39 47.9 °F 35.9 °F 29.64 in SSE 14 mph 17 mph 63% 0 in 0.00 W/m2
01:44 47.7 °F 36.1 °F 29.64 in SE 8 mph 17 mph 64% 0 in 0.00 W/m2
01:49 47.6 °F 36 °F 29.64 in SSE 11 mph 16 mph 64% 0 in 0.00 W/m2
01:54 47.6 °F 36 °F 29.64 in SSE 6 mph 16 mph 64% 0 in 0.00 W/m2
01:59 48 °F 36.4 °F 29.64 in SSE 8 mph 19 mph 64% 0 in 0.00 W/m2
02:04 48.2 °F 36.6 °F 29.63 in SE 10 mph 19 mph 64% 0 in 0.00 W/m2
02:09 47.8 °F 36.2 °F 29.63 in SE 8 mph 16 mph 64% 0 in 0.00 W/m2
02:14 47.6 °F 36.4 °F 29.63 in SE 8 mph 16 mph 65% 0 in 0.00 W/m2
02:19 47.3 °F 36.5 °F 29.63 in SSE 10 mph 11 mph 66% 0 in 0.00 W/m2
02:24 47.2 °F 36.4 °F 29.62 in SSE 8 mph 13 mph 66% 0 in 0.00 W/m2
02:29 47.2 °F 36.8 °F 29.62 in SE 8 mph 13 mph 67% 0 in 0.00 W/m2
02:34 47.4 °F 37 °F 29.62 in SSE 5 mph 14 mph 67% 0 in 0.00 W/m2
02:39 47.6 °F 36.8 °F 29.62 in SW 3 mph 14 mph 66% 0 in 0.00 W/m2
02:44 48.1 °F 36.9 °F 29.63 in SSW 8 mph 13 mph 65% 0 in 0.00 W/m2
02:49 48.8 °F 37.2 °F 29.63 in SSW 9 mph 13 mph 64% 0 in 0.00 W/m2
02:54 49 °F 36.9 °F 29.63 in SSW 13 mph 15 mph 63% 0 in 0.00 W/m2
02:59 49.1 °F 37 °F 29.62 in SSW 9 mph 17 mph 63% 0 in 0.00 W/m2
03:04 49 °F 36.9 °F 29.62 in South 8 mph 17 mph 63% 0 in 0.00 W/m2
03:09 48.8 °F 37.2 °F 29.62 in SSW 6 mph 16 mph 64% 0 in 0.00 W/m2
03:14 48.7 °F 37.1 °F 29.61 in SSW 9 mph 16 mph 64% 0 in 0.00 W/m2
03:19 48.6 °F 37 °F 29.61 in SE 7 mph 14 mph 64% 0 in 0.00 W/m2
03:24 48.6 °F 37 °F 29.61 in South 6 mph 14 mph 64% 0 in 0.00 W/m2
03:29 48.6 °F 37.4 °F 29.61 in South 9 mph 15 mph 65% 0 in 0.00 W/m2
03:34 48.6 °F 37.4 °F 29.61 in South 7 mph 15 mph 65% 0 in 0.00 W/m2
03:39 48.5 °F 37.3 °F 29.61 in South 6 mph 14 mph 65% 0 in 0.00 W/m2
03:44 48.5 °F 37.3 °F 29.61 in South 8 mph 14 mph 65% 0 in 0.00 W/m2
03:49 48.4 °F 37.6 °F 29.60 in South 9 mph 15 mph 66% 0 in 0.00 W/m2
03:54 48.4 °F 37.6 °F 29.60 in South 9 mph 15 mph 66% 0 in 0.00 W/m2
03:59 48.4 °F 37.9 °F 29.60 in South 6 mph 12 mph 67% 0 in 0.00 W/m2
04:04 48.3 °F 37.8 °F 29.59 in SE 5 mph 12 mph 67% 0 in 0.00 W/m2
04:09 48.2 °F 38.1 °F 29.59 in SE 4 mph 10 mph 68% 0 in 0.00 W/m2
04:14 47.8 °F 38.1 °F 29.59 in SE 3 mph 9 mph 69% 0 in 0.00 W/m2
04:19 47.5 °F 38.2 °F 29.60 in SSW 5 mph 7 mph 70% 0 in 0.00 W/m2
04:24 47.2 °F 38.3 °F 29.60 in SSW 9 mph 10 mph 71% 0 in 0.00 W/m2
04:29 47.2 °F 38.3 °F 29.60 in SSW 6 mph 12 mph 71% 0 in 0.00 W/m2
04:34 47.3 °F 38 °F 29.59 in SSW 8 mph 15 mph 70% 0 in 0.00 W/m2
04:39 47.3 °F 38 °F 29.59 in SSW 11 mph 15 mph 70% 0 in 0.00 W/m2
04:44 47 °F 38.4 °F 29.59 in SW 5 mph 13 mph 72% 0 in 0.00 W/m2
04:49 46.3 °F 38.8 °F 29.59 in WSW 5 mph 11 mph 75% 0 in 0.00 W/m2
04:54 45.7 °F 39.2 °F 29.59 in WSW 7 mph 10 mph 78% 0 in 0.00 W/m2
04:59 45.3 °F 39.8 °F 29.59 in WSW 7 mph 10 mph 81% 0 in 0.00 W/m2
05:04 45.2 °F 40 °F 29.58 in West 6 mph 10 mph 82% 0.01 in 0.00 W/m2
05:09 45.1 °F 40.2 °F 29.58 in West 6 mph 9 mph 83% 0.01 in 0.00 W/m2
05:14 45.1 °F 40.6 °F 29.58 in West 2 mph 8 mph 84% 0.01 in 0.00 W/m2
05:19 45 °F 40.8 °F 29.58 in West 3 mph 8 mph 85% 0.02 in 0.00 W/m2
05:24 44.8 °F 40.6 °F 29.58 in West 2 mph 8 mph 85% 0.02 in 0.00 W/m2
05:29 44.7 °F 40.8 °F 29.58 in West 3 mph 8 mph 86% 0.02 in 0.00 W/m2
05:34 44.7 °F 40.8 °F 29.57 in West 2 mph 6 mph 86% 0.03 in 0.00 W/m2
05:39 44.7 °F 41.1 °F 29.58 in West 4 mph 6 mph 87% 0.03 in 0.00 W/m2
05:44 44.6 °F 41 °F 29.58 in WNW 4 mph 6 mph 87% 0.04 in 0.00 W/m2
05:49 44.6 °F 41 °F 29.58 in WNW 2 mph 6 mph 87% 0.04 in 0.00 W/m2
05:54 44.6 °F 41.3 °F 29.58 in WNW 2 mph 5 mph 88% 0.05 in 0.00 W/m2
05:59 44.6 °F 41.3 °F 29.58 in WNW 1 mph 5 mph 88% 0.05 in 0.00 W/m2
06:04 44.5 °F 41.5 °F 29.58 in WNW 3 mph 5 mph 89% 0.06 in 0.00 W/m2
06:09 44.4 °F 41.4 °F 29.57 in WNW 1 mph 3 mph 89% 0.06 in 0.00 W/m2
06:14 44.3 °F 41.6 °F 29.57 in WNW 1 mph 3 mph 90% 0.07 in 0.00 W/m2
06:19 44.3 °F 41.6 °F 29.57 in WSW 4 mph 4 mph 90% 0.07 in 0.00 W/m2
06:24 44.5 °F 41.7 °F 29.57 in South 2 mph 7 mph 90% 0.07 in 0.00 W/m2
06:29 44.5 °F 42 °F 29.57 in SSE 3 mph 7 mph 91% 0.08 in 0.00 W/m2
06:34 44.6 °F 42.1 °F 29.57 in South 8 mph 8 mph 91% 0.08 in 5.00 W/m2
06:39 44.8 °F 42.6 °F 29.57 in South 7 mph 9 mph 92% 0.08 in 7.00 W/m2
06:44 45 °F 42.8 °F 29.57 in South 6 mph 10 mph 92% 0.07 in 9.00 W/m2
06:49 45.1 °F 42.9 °F 29.57 in SSE 8 mph 10 mph 92% 0.07 in 5.00 W/m2
06:54 45.1 °F 42.9 °F 29.57 in SW 8 mph 11 mph 92% 0.06 in 7.00 W/m2
06:59 45 °F 42.8 °F 29.57 in WSW 13 mph 13 mph 92% 0.05 in 5.00 W/m2
07:04 44.9 °F 42.7 °F 29.56 in WSW 10 mph 15 mph 92% 0.04 in 16.00 W/m2
07:09 44.8 °F 42.6 °F 29.56 in WSW 10 mph 15 mph 92% 0.04 in 35.00 W/m2
07:14 44.9 °F 42.7 °F 29.56 in West 13 mph 17 mph 92% 0.03 in 46.00 W/m2
07:19 44.9 °F 42.7 °F 29.56 in WSW 14 mph 17 mph 92% 0.02 in 49.00 W/m2
07:24 45 °F 42.8 °F 29.56 in West 14 mph 17 mph 92% 0.02 in 33.00 W/m2
07:29 44.9 °F 42.7 °F 29.56 in West 11 mph 17 mph 92% 0.01 in 25.00 W/m2
07:34 44.9 °F 43 °F 29.56 in West 13 mph 17 mph 93% 0 in 16.00 W/m2
07:39 44.8 °F 42.9 °F 29.56 in West 8 mph 17 mph 93% 0 in 14.00 W/m2
07:44 44.8 °F 42.9 °F 29.56 in West 11 mph 17 mph 93% 0 in 11.00 W/m2
07:49 44.8 °F 42.9 °F 29.56 in West 9 mph 14 mph 93% 0 in 9.00 W/m2
07:54 44.8 °F 42.9 °F 29.56 in WNW 10 mph 13 mph 93% 0 in 11.00 W/m2
07:59 44.7 °F 43.1 °F 29.57 in NW 8 mph 13 mph 94% 0 in 9.00 W/m2
08:04 44.7 °F 43.1 °F 29.57 in NW 13 mph 13 mph 94% 0 in 9.00 W/m2
08:09 44.8 °F 43.2 °F 29.57 in WNW 8 mph 13 mph 94% 0 in 14.00 W/m2
08:14 44.9 °F 43.3 °F 29.57 in NW 7 mph 15 mph 94% 0 in 23.00 W/m2
08:19 45 °F 43.4 °F 29.57 in WNW 5 mph 15 mph 94% 0 in 23.00 W/m2
08:24 45.1 °F 43.5 °F 29.57 in WNW 7 mph 15 mph 94% 0 in 12.00 W/m2
08:29 45 °F 43.4 °F 29.57 in West 6 mph 15 mph 94% 0.01 in 12.00 W/m2
08:34 45 °F 43.4 °F 29.57 in West 10 mph 11 mph 94% 0.01 in 16.00 W/m2
08:39 45 °F 43.4 °F 29.57 in WNW 6 mph 11 mph 94% 0.01 in 18.00 W/m2
08:44 45.1 °F 43.5 °F 29.58 in West 7 mph 11 mph 94% 0.01 in 26.00 W/m2
08:49 45.2 °F 43.6 °F 29.58 in WNW 7 mph 11 mph 94% 0.01 in 35.00 W/m2
08:54 45.3 °F 43.7 °F 29.58 in WNW 9 mph 11 mph 94% 0.01 in 32.00 W/m2
08:59 45.4 °F 43.5 °F 29.58 in West 7 mph 11 mph 93% 0.01 in 35.00 W/m2
09:04 45.4 °F 43.5 °F 29.58 in West 8 mph 12 mph 93% 0.01 in 37.00 W/m2
09:09 45.4 °F 43.5 °F 29.58 in West 9 mph 12 mph 93% 0.01 in 44.00 W/m2
09:14 45.6 °F 43.7 °F 29.58 in WNW 9 mph 12 mph 93% 0.01 in 58.00 W/m2
09:19 45.7 °F 43.8 °F 29.58 in West 7 mph 12 mph 93% 0.01 in 58.00 W/m2
09:24 45.8 °F 43.9 °F 29.58 in West 11 mph 12 mph 93% 0.01 in 46.00 W/m2
09:29 45.7 °F 43.5 °F 29.58 in WNW 14 mph 14 mph 92% 0 in 35.00 W/m2
09:34 45.4 °F 43.5 °F 29.58 in WNW 10 mph 15 mph 93% 0 in 40.00 W/m2
09:39 45.5 °F 43.6 °F 29.58 in West 11 mph 15 mph 93% 0 in 54.00 W/m2
09:44 45.6 °F 43.7 °F 29.58 in West 9 mph 15 mph 93% 0 in 102.00 W/m2
09:49 45.8 °F 43.9 °F 29.58 in West 7 mph 15 mph 93% 0 in 77.00 W/m2
09:54 45.9 °F 44 °F 29.58 in West 11 mph 15 mph 93% 0 in 86.00 W/m2
09:59 46 °F 44.1 °F 29.59 in WNW 8 mph 12 mph 93% 0 in 86.00 W/m2
10:04 45.9 °F 44 °F 29.59 in WNW 9 mph 13 mph 93% 0 in 63.00 W/m2
10:09 45.9 °F 44 °F 29.59 in WNW 8 mph 13 mph 93% 0 in 81.00 W/m2
10:14 45.9 °F 44 °F 29.59 in West 9 mph 14 mph 93% 0 in 93.00 W/m2
10:19 45.8 °F 44.2 °F 29.59 in WNW 9 mph 14 mph 94% 0 in 118.00 W/m2
10:24 45.9 °F 44.3 °F 29.59 in WNW 10 mph 14 mph 94% 0 in 100.00 W/m2
10:29 45.9 °F 44.3 °F 29.59 in WNW 7 mph 14 mph 94% 0 in 77.00 W/m2
10:34 45.9 °F 44.3 °F 29.59 in WNW 5 mph 12 mph 94% 0 in 65.00 W/m2
10:39 45.9 °F 44.3 °F 29.59 in WNW 8 mph 12 mph 94% 0 in 63.00 W/m2
10:44 45.9 °F 44.3 °F 29.59 in NW 13 mph 13 mph 94% 0 in 77.00 W/m2
10:49 45.8 °F 44.2 °F 29.59 in WNW 4 mph 13 mph 94% 0 in 91.00 W/m2
10:54 46 °F 44.4 °F 29.59 in NW 10 mph 13 mph 94% 0 in 100.00 W/m2
10:59 46.1 °F 44.5 °F 29.59 in NW 8 mph 12 mph 94% 0 in 91.00 W/m2
11:04 46.3 °F 44.7 °F 29.59 in NNW 5 mph 12 mph 94% 0 in 134.00 W/m2
11:09 46.7 °F 45.1 °F 29.59 in NW 5 mph 11 mph 94% 0 in 93.00 W/m2
11:14 47 °F 45.4 °F 29.59 in WNW 8 mph 12 mph 94% 0 in 181.00 W/m2
11:19 47.2 °F 45.6 °F 29.59 in NW 8 mph 12 mph 94% 0 in 162.00 W/m2
11:24 47.2 °F 45.3 °F 29.59 in NW 8 mph 17 mph 93% 0 in 132.00 W/m2
11:29 47.3 °F 45.4 °F 29.59 in West 13 mph 17 mph 93% 0 in 77.00 W/m2
11:34 46.9 °F 44.7 °F 29.59 in NW 14 mph 21 mph 92% 0 in 111.00 W/m2
11:39 46.8 °F 44.6 °F 29.59 in WNW 12 mph 21 mph 92% 0 in 142.00 W/m2
11:44 47 °F 45.1 °F 29.59 in WNW 14 mph 21 mph 93% 0 in 197.00 W/m2
11:49 47.1 °F 45.2 °F 29.59 in West 11 mph 21 mph 93% 0 in 156.00 W/m2
11:54 47 °F 44.8 °F 29.59 in NW 11 mph 19 mph 92% 0 in 139.00 W/m2
11:59 46.8 °F 44.9 °F 29.60 in NW 12 mph 19 mph 93% 0 in 207.00 W/m2
12:04 46.8 °F 44.9 °F 29.60 in NW 9 mph 20 mph 93% 0 in 178.00 W/m2
12:09 46.9 °F 45 °F 29.60 in WNW 13 mph 20 mph 93% 0 in 137.00 W/m2
12:14 46.5 °F 44.6 °F 29.60 in NW 11 mph 18 mph 93% 0 in 121.00 W/m2
12:19 46.5 °F 44.6 °F 29.60 in WNW 15 mph 20 mph 93% 0 in 76.00 W/m2
12:24 46.3 °F 44.4 °F 29.60 in WNW 12 mph 20 mph 93% 0 in 67.00 W/m2
12:29 46 °F 44.1 °F 29.60 in NW 7 mph 17 mph 93% 0.01 in 51.00 W/m2
12:34 46 °F 44.4 °F 29.60 in NW 12 mph 17 mph 94% 0.01 in 69.00 W/m2
12:39 45.9 °F 44.3 °F 29.60 in NW 8 mph 14 mph 94% 0.01 in 97.00 W/m2
12:44 46.1 °F 44.5 °F 29.60 in NW 11 mph 15 mph 94% 0.01 in 149.00 W/m2
12:49 46.2 °F 44.6 °F 29.60 in WNW 14 mph 17 mph 94% 0.01 in 144.00 W/m2
12:54 46.4 °F 44.8 °F 29.60 in NW 10 mph 18 mph 94% 0.01 in 167.00 W/m2
12:59 46.5 °F 44.9 °F 29.60 in WNW 12 mph 18 mph 94% 0.01 in 123.00 W/m2
13:04 46.6 °F 45 °F 29.60 in NW 12 mph 18 mph 94% 0.01 in 165.00 W/m2
13:09 46.6 °F 44.7 °F 29.60 in NW 10 mph 18 mph 93% 0.01 in 183.00 W/m2
13:14 46.8 °F 44.9 °F 29.60 in WNW 13 mph 17 mph 93% 0.01 in 171.00 W/m2
13:19 46.8 °F 44.9 °F 29.61 in NW 12 mph 19 mph 93% 0.01 in 183.00 W/m2
13:24 46.9 °F 45 °F 29.61 in NW 8 mph 19 mph 93% 0.01 in 221.00 W/m2
13:29 47.2 °F 45.3 °F 29.61 in NW 9 mph 19 mph 93% 0 in 176.00 W/m2
13:34 47 °F 45.1 °F 29.61 in WNW 13 mph 19 mph 93% 0 in 192.00 W/m2
13:39 47.2 °F 45.3 °F 29.61 in NW 16 mph 16 mph 93% 0 in 179.00 W/m2
13:44 47.1 °F 45.2 °F 29.61 in WNW 11 mph 17 mph 93% 0 in 167.00 W/m2
13:49 47.1 °F 45.2 °F 29.61 in WNW 12 mph 17 mph 93% 0 in 141.00 W/m2
13:54 47.1 °F 45.2 °F 29.61 in NW 11 mph 15 mph 93% 0 in 171.00 W/m2
13:59 47.1 °F 45.5 °F 29.61 in WNW 13 mph 15 mph 94% 0 in 118.00 W/m2
14:04 47.1 °F 45.5 °F 29.61 in WNW 10 mph 15 mph 94% 0 in 134.00 W/m2
14:09 47.1 °F 45.5 °F 29.61 in WNW 10 mph 15 mph 94% 0 in 123.00 W/m2
14:14 47 °F 45.4 °F 29.61 in WNW 5 mph 13 mph 94% 0 in 135.00 W/m2
14:19 47.2 °F 45.6 °F 29.61 in NW 10 mph 13 mph 94% 0 in 111.00 W/m2
14:24 47.1 °F 45.5 °F 29.61 in WNW 5 mph 12 mph 94% 0 in 114.00 W/m2
14:29 47.2 °F 45.6 °F 29.61 in WNW 7 mph 12 mph 94% 0 in 142.00 W/m2
14:34 47.3 °F 45.7 °F 29.61 in NW 8 mph 12 mph 94% 0 in 274.00 W/m2
14:39 48 °F 46.6 °F 29.61 in WNW 11 mph 12 mph 95% 0 in 329.00 W/m2
14:44 48.2 °F 46.6 °F 29.61 in WNW 11 mph 12 mph 94% 0 in 359.00 W/m2
14:49 48.2 °F 46.6 °F 29.62 in NW 9 mph 12 mph 94% 0 in 413.00 W/m2
14:54 49.2 °F 47.8 °F 29.62 in NW 5 mph 12 mph 95% 0 in 420.00 W/m2
14:59 49.6 °F 48.2 °F 29.62 in NW 12 mph 12 mph 95% 0 in 241.00 W/m2
15:04 49.9 °F 48.2 °F 29.62 in North 6 mph 13 mph 94% 0 in 281.00 W/m2
15:09 50.4 °F 48.5 °F 29.62 in NNW 8 mph 15 mph 93% 0 in 434.00 W/m2
15:14 51.3 °F 49.3 °F 29.62 in NNW 11 mph 15 mph 93% 0 in 617.00 W/m2
15:19 52.3 °F 50 °F 29.62 in North 13 mph 18 mph 92% 0 in 436.00 W/m2
15:24 52.4 °F 48.9 °F 29.62 in North 6 mph 18 mph 88% 0 in 199.00 W/m2
15:29 52.1 °F 48 °F 29.62 in NW 18 mph 21 mph 86% 0 in 343.00 W/m2
15:34 52.1 °F 48.3 °F 29.63 in North 12 mph 21 mph 87% 0 in 346.00 W/m2
15:39 52.3 °F 48.2 °F 29.63 in North 14 mph 19 mph 86% 0 in 348.00 W/m2
15:44 52.5 °F 48.1 °F 29.63 in NNW 13 mph 19 mph 85% 0 in 236.00 W/m2
15:49 52.2 °F 47.2 °F 29.63 in NNW 15 mph 20 mph 83% 0 in 218.00 W/m2
15:54 52.3 °F 47.6 °F 29.63 in NNW 15 mph 20 mph 84% 0 in 338.00 W/m2
15:59 52.3 °F 47.3 °F 29.63 in NW 14 mph 20 mph 83% 0 in 353.00 W/m2
16:04 51.3 °F 46.6 °F 29.64 in NW 18 mph 21 mph 84% 0 in 197.00 W/m2
16:09 50.7 °F 46.4 °F 29.64 in NW 18 mph 22 mph 85% 0 in 195.00 W/m2
16:14 50.5 °F 46.5 °F 29.64 in WNW 18 mph 23 mph 86% 0 in 91.00 W/m2
16:19 50.1 °F 46.4 °F 29.64 in NW 14 mph 23 mph 87% 0 in 40.00 W/m2
16:24 49.4 °F 46 °F 29.63 in WNW 15 mph 22 mph 88% 0.01 in 130.00 W/m2
16:29 49.2 °F 46.1 °F 29.63 in NW 11 mph 22 mph 89% 0.01 in 142.00 W/m2
16:34 49.4 °F 46.6 °F 29.63 in NW 10 mph 19 mph 90% 0.01 in 123.00 W/m2
16:39 49.7 °F 46.6 °F 29.63 in NW 17 mph 21 mph 89% 0.01 in 225.00 W/m2
16:44 50.3 °F 47.2 °F 29.63 in NW 18 mph 21 mph 89% 0.01 in 243.00 W/m2
16:49 50.9 °F 47.5 °F 29.63 in NW 14 mph 21 mph 88% 0.01 in 271.00 W/m2
16:54 51.3 °F 46.9 °F 29.63 in NW 20 mph 24 mph 85% 0.01 in 309.00 W/m2
16:59 51.4 °F 46.7 °F 29.63 in NW 22 mph 24 mph 84% 0.01 in 274.00 W/m2
17:04 51.4 °F 46.4 °F 29.63 in NW 14 mph 24 mph 83% 0.01 in 267.00 W/m2
17:09 51.5 °F 46.5 °F 29.64 in WNW 13 mph 24 mph 83% 0.01 in 269.00 W/m2
17:14 51.9 °F 46.9 °F 29.63 in WNW 15 mph 23 mph 83% 0.01 in 241.00 W/m2
17:19 51.7 °F 46.1 °F 29.64 in WNW 19 mph 23 mph 81% 0.01 in 176.00 W/m2
17:24 51.7 °F 45.7 °F 29.64 in WNW 22 mph 24 mph 80% 0 in 162.00 W/m2
17:29 51.7 °F 45.7 °F 29.64 in NW 18 mph 24 mph 80% 0 in 209.00 W/m2
17:34 52 °F 46 °F 29.64 in NW 15 mph 23 mph 80% 0 in 227.00 W/m2
17:39 52.2 °F 46.2 °F 29.64 in WNW 12 mph 24 mph 80% 0 in 239.00 W/m2
17:44 52.3 °F 46.3 °F 29.64 in West 20 mph 24 mph 80% 0 in 195.00 W/m2
17:49 52.2 °F 46.2 °F 29.64 in NW 18 mph 24 mph 80% 0 in 144.00 W/m2
17:54 52.1 °F 46.1 °F 29.64 in NW 17 mph 24 mph 80% 0 in 146.00 W/m2
17:59 52.4 °F 46.1 °F 29.64 in WNW 13 mph 23 mph 79% 0 in 158.00 W/m2
18:04 52.4 °F 45.7 °F 29.64 in NW 17 mph 23 mph 78% 0 in 100.00 W/m2
18:09 52.4 °F 45.7 °F 29.64 in NW 17 mph 23 mph 78% 0 in 132.00 W/m2
18:14 52.6 °F 45.9 °F 29.64 in NW 15 mph 23 mph 78% 0 in 146.00 W/m2
18:19 52.8 °F 45.4 °F 29.64 in WNW 12 mph 24 mph 76% 0 in 169.00 W/m2
18:24 53 °F 45.6 °F 29.64 in NW 11 mph 24 mph 76% 0 in 98.00 W/m2
18:29 52.9 °F 45.5 °F 29.64 in WNW 15 mph 24 mph 76% 0 in 100.00 W/m2
18:34 52.6 °F 45.2 °F 29.64 in WNW 18 mph 24 mph 76% 0 in 60.00 W/m2
18:39 52.3 °F 45.3 °F 29.64 in NW 16 mph 22 mph 77% 0 in 39.00 W/m2
18:44 52.1 °F 45.4 °F 29.64 in NW 10 mph 20 mph 78% 0 in 44.00 W/m2
18:49 52.1 °F 45.4 °F 29.64 in WNW 15 mph 20 mph 78% 0 in 51.00 W/m2
18:54 52.2 °F 45.5 °F 29.64 in NW 10 mph 20 mph 78% 0 in 100.00 W/m2
18:59 52.4 °F 45.7 °F 29.64 in WNW 12 mph 19 mph 78% 0 in 97.00 W/m2
19:04 52.5 °F 45.5 °F 29.64 in NW 10 mph 19 mph 77% 0 in 49.00 W/m2
19:09 52.5 °F 45.8 °F 29.64 in WNW 16 mph 17 mph 78% 0 in 32.00 W/m2
19:14 52.4 °F 45.7 °F 29.64 in WNW 10 mph 17 mph 78% 0 in 33.00 W/m2
19:19 51.9 °F 45.9 °F 29.64 in WNW 11 mph 16 mph 80% 0 in 49.00 W/m2
19:24 51.7 °F 46.1 °F 29.64 in WNW 8 mph 13 mph 81% 0 in 44.00 W/m2
19:29 51.6 °F 46 °F 29.64 in WNW 9 mph 13 mph 81% 0 in 33.00 W/m2
19:34 51.6 °F 46 °F 29.64 in WNW 9 mph 13 mph 81% 0 in 28.00 W/m2
19:39 51.8 °F 45.8 °F 29.64 in WNW 7 mph 13 mph 80% 0 in 16.00 W/m2
19:44 51.9 °F 45.6 °F 29.64 in NW 8 mph 13 mph 79% 0 in 9.00 W/m2
19:49 52.1 °F 45.4 °F 29.65 in NW 8 mph 13 mph 78% 0 in 7.00 W/m2
19:54 52.1 °F 45.4 °F 29.65 in NNW 9 mph 13 mph 78% 0 in 9.00 W/m2
19:59 51.8 °F 45.5 °F 29.65 in NW 8 mph 13 mph 79% 0 in 7.00 W/m2
20:04 51.6 °F 45.3 °F 29.65 in NW 11 mph 13 mph 79% 0 in 9.00 W/m2
20:09 51.4 °F 45.4 °F 29.65 in NW 6 mph 13 mph 80% 0 in 9.00 W/m2
20:14 51.1 °F 45.5 °F 29.65 in NW 10 mph 12 mph 81% 0 in 11.00 W/m2
20:19 50.9 °F 45.6 °F 29.65 in NW 12 mph 14 mph 82% 0 in 12.00 W/m2
20:24 50.6 °F 45.6 °F 29.66 in NNW 9 mph 14 mph 83% 0 in 7.00 W/m2
20:29 50.2 °F 45.9 °F 29.66 in NW 9 mph 14 mph 85% 0 in 5.00 W/m2
20:34 49.9 °F 45.9 °F 29.66 in NW 8 mph 14 mph 86% 0.01 in 0.00 W/m2
20:39 49.8 °F 45.8 °F 29.66 in NW 9 mph 12 mph 86% 0.01 in 0.00 W/m2
20:44 49.8 °F 45.8 °F 29.66 in NW 9 mph 12 mph 86% 0.01 in 0.00 W/m2
20:49 50.2 °F 45.9 °F 29.66 in WNW 5 mph 12 mph 85% 0.01 in 0.00 W/m2
20:54 50.5 °F 45.8 °F 29.66 in NW 6 mph 11 mph 84% 0.01 in 0.00 W/m2
20:59 50.5 °F 45.5 °F 29.66 in NW 5 mph 10 mph 83% 0.01 in 0.00 W/m2
21:04 50.4 °F 45.4 °F 29.66 in NW 5 mph 10 mph 83% 0.01 in 0.00 W/m2
21:09 50.3 °F 45.3 °F 29.66 in NW 8 mph 9 mph 83% 0.01 in 0.00 W/m2
21:14 50.4 °F 45.4 °F 29.66 in NW 6 mph 10 mph 83% 0.01 in 0.00 W/m2
21:19 50.4 °F 45.4 °F 29.67 in NW 4 mph 10 mph 83% 0.01 in 0.00 W/m2
21:24 50.3 °F 45.3 °F 29.67 in NW 7 mph 10 mph 83% 0.01 in 0.00 W/m2
21:29 50.2 °F 45.2 °F 29.67 in NW 6 mph 10 mph 83% 0.01 in 0.00 W/m2
21:34 50.1 °F 45.5 °F 29.67 in NW 8 mph 10 mph 84% 0 in 0.00 W/m2
21:39 50 °F 45.4 °F 29.67 in NW 6 mph 11 mph 84% 0 in 0.00 W/m2
21:44 50.1 °F 45.5 °F 29.68 in NW 13 mph 14 mph 84% 0 in 0.00 W/m2
21:49 50 °F 45.4 °F 29.67 in NW 10 mph 14 mph 84% 0 in 0.00 W/m2
21:54 49.9 °F 45.3 °F 29.68 in NW 10 mph 13 mph 84% 0 in 0.00 W/m2
21:59 50 °F 45 °F 29.68 in NNW 10 mph 13 mph 83% 0 in 0.00 W/m2
22:04 50.1 °F 45.1 °F 29.68 in NW 7 mph 13 mph 83% 0 in 0.00 W/m2
22:09 50.3 °F 45 °F 29.68 in NW 7 mph 11 mph 82% 0 in 0.00 W/m2
22:14 50.4 °F 44.8 °F 29.68 in WNW 9 mph 11 mph 81% 0 in 0.00 W/m2
22:19 50.5 °F 44.9 °F 29.68 in NW 8 mph 11 mph 81% 0 in 0.00 W/m2
22:24 50.4 °F 44.5 °F 29.68 in WNW 8 mph 11 mph 80% 0 in 0.00 W/m2
22:29 50.4 °F 44.5 °F 29.68 in NW 4 mph 10 mph 80% 0 in 0.00 W/m2
22:34 50.2 °F 44.3 °F 29.68 in NW 5 mph 10 mph 80% 0 in 0.00 W/m2
22:39 50.1 °F 44.2 °F 29.69 in NW 4 mph 10 mph 80% 0 in 0.00 W/m2
22:44 49.9 °F 44.3 °F 29.69 in NW 7 mph 10 mph 81% 0 in 0.00 W/m2
22:49 49.8 °F 44.2 °F 29.69 in WNW 5 mph 10 mph 81% 0 in 0.00 W/m2
22:54 49.7 °F 44.1 °F 29.69 in WNW 5 mph 9 mph 81% 0 in 0.00 W/m2
22:59 49.6 °F 44 °F 29.69 in NW 6 mph 10 mph 81% 0 in 0.00 W/m2
23:04 49.6 °F 44 °F 29.69 in WNW 7 mph 10 mph 81% 0 in 0.00 W/m2
23:09 49.7 °F 43.8 °F 29.69 in West 8 mph 11 mph 80% 0 in 0.00 W/m2
23:14 49.9 °F 43.6 °F 29.69 in NW 6 mph 11 mph 79% 0 in 0.00 W/m2
23:19 50 °F 43.7 °F 29.69 in NW 4 mph 11 mph 79% 0 in 0.00 W/m2
23:24 50.2 °F 43.6 °F 29.69 in NW 6 mph 13 mph 78% 0 in 0.00 W/m2
23:29 50.2 °F 43.6 °F 29.69 in NW 7 mph 13 mph 78% 0 in 0.00 W/m2
23:34 50 °F 43.4 °F 29.69 in NW 9 mph 14 mph 78% 0 in 0.00 W/m2
23:39 49.9 °F 43.3 °F 29.69 in WNW 5 mph 14 mph 78% 0 in 0.00 W/m2
23:44 49.9 °F 43.6 °F 29.69 in NW 4 mph 10 mph 79% 0 in 0.00 W/m2
23:49 49.7 °F 43.5 °F 29.69 in NNW 4 mph 14 mph 79% 0 in 0.00 W/m2
23:54 49.5 °F 43.6 °F 29.69 in NNW 4 mph 14 mph 80% 0 in 0.00 W/m2
23:59 49.1 °F 43.5 °F 29.69 in NNW 6 mph 9 mph 81% 0 in 0.00 W/m2
Bismarck, North Dakota, USA
Compliments of Weather Underground - 4 mb